Content
SEND FEEDBACK

Daily
Averages
Monthly
Summary
United States of America

AURORA, ILLINOIS


Home > North America > United States > Illinois
Elevation: 662 feet     Latitude: 41 45N     Longitude: 088 20W

WEATHER
 
SELECT A DAY
Number of Records: 184,955;   Date Range: 1/1/95 - 7/7/14
 
SHARE

PRINT THIS DATA

[ ← Previous Day ]
WEATHER ALMANAC - JANUARY 31, 2013
[ Next Day → ]
[ °C ]   °F
Weather ElementAverageHighLow
Temperature12.5 °F19.4 °F (1:14 am)3 °F (11:52 pm)
Dewpoint6.1 °F12.2 °F (1:14 am)-2.9 °F (10:52 pm)
Humidity75.5 %86 % (8:18 am)70 % (3:52 pm)
Barometer29.91 in30.22 in (11:52 pm)29.68 in (1:14 am)
Wind Speed22.8 mph27.6 mph (7:21 am)
Wind Gust35.7 mph (1:52 am)
Weather ElementAverage
Visibility7.1 mi
Wind DirectionWNW (278.3 °)

Weather ElementTotal
Precipitation---
Heating Degree Days53.8 (Base 65)
Averaged from 41 records on January 31, 2013
WEATHER CONDITIONS BREAKOUT
WIND DIRECTION BREAKOUT
WEATHER BY HOUR - JANUARY 31, 2013
[ °C ]   °F
Local TimeTemperatureDewpointHumidityBarometerVisibilityWind DirectionWind SpeedGust SpeedPrecipitationEventsConditions
1:14 AM19.4 °F12.2 °F74 %29.68 in5.0 miWNW (290°)24.2 mph0.00 inSnowLight Snow
1:37 AM17.6 °F10.4 °F73 %29.69 in10.0 miWest (280°)24.2 mph31.1 mph0.00 inOvercast
1:52 AM18.0 °F10.0 °F71 %29.73 in10.0 miWest (280°)26.5 mph35.7 mph0.00 inOvercast
1:59 AM17.6 °F10.4 °F73 %29.70 in10.0 miWest (280°)23.0 mph34.5 mphOvercast
2:48 AM17.6 °F10.4 °F73 %29.72 in7.0 miWest (280°)20.7 mph0.00 inSnowLight Snow
2:52 AM18.0 °F12.0 °F78 %29.74 in7.0 miWest (280°)17.3 mph27.6 mph0.00 inSnowLight Snow
3:52 AM17.1 °F10.9 °F77 %29.75 in9.0 miWest (280°)24.2 mph35.7 mph0.00 inOvercast
4:52 AM17.1 °F10.9 °F77 %29.77 in10.0 miWest (280°)26.5 mph29.9 mph0.00 inOvercast
5:10 AM17.6 °F10.4 °F73 %29.74 in7.0 miWest (270°)21.9 mph28.8 mph0.00 inSnowLight Snow
5:52 AM17.1 °F10.9 °F77 %29.78 in9.0 miWest (270°)20.7 mph0.00 inOvercast
6:22 AM15.8 °F10.4 °F79 %29.76 in2.5 miWest (270°)20.7 mph28.8 mph0.00 inSnowLight Snow
6:43 AM15.8 °F10.4 °F79 %29.77 in2.0 miWest (280°)18.4 mph31.1 mph0.00 inSnowLight Snow
6:52 AM16.0 °F10.9 °F81 %29.81 in3.0 miWest (270°)24.2 mph28.8 mph0.00 inSnowLight Snow
7:14 AM15.8 °F10.4 °F79 %29.79 in2.0 miWest (270°)24.2 mph28.8 mph0.00 inSnowLight Snow
7:21 AM15.8 °F8.6 °F73 %29.79 in3.0 miWest (270°)27.6 mph32.2 mph0.00 inSnowLight Snow
7:52 AM14.0 °F8.1 °F77 %29.84 in9.0 miWest (280°)18.4 mph0.00 inMostly Cloudy
8:18 AM14.0 °F10.4 °F86 %29.81 in1.8 miWest (270°)21.9 mph26.5 mph0.00 inSnowLight Snow
8:22 AM14.0 °F8.6 °F79 %29.81 in3.0 miWest (270°)23.0 mph26.5 mph0.00 inSnowLight Snow
8:52 AM12.9 °F8.1 °F81 %29.87 in1.8 miWest (280°)19.6 mph26.5 mph0.00 inSnowLight Snow
9:07 AM12.2 °F8.6 °F85 %29.84 in3.0 miWest (270°)19.6 mph0.00 inSnowLight Snow
9:52 AM12.9 °F7.0 °F77 %29.89 in6.0 miWest (270°)20.7 mph0.00 inHaze
10:52 AM12.9 °F7.0 °F77 %29.91 in6.0 miWest (270°)21.9 mph26.5 mph0.00 inHaze
11:52 AM14.0 °F8.1 °F77 %29.93 in9.0 miWest (270°)23.0 mph28.8 mphMostly Cloudy
12:52 PM14.0 °F7.0 °F74 %29.94 in9.0 miWest (270°)18.4 mph28.8 mph0.00 inOvercast
1:52 PM12.9 °F6.1 °F74 %29.95 in6.0 miWest (270°)24.2 mph27.6 mph0.00 inSnowLight Snow
2:52 PM12.9 °F6.1 °F74 %29.96 in9.0 miWest (270°)21.9 mph28.8 mph0.00 inOvercast
3:52 PM12.0 °F3.9 °F70 %29.99 in9.0 miWest (280°)24.2 mph0.00 inOvercast
4:52 PM10.0 °F3.9 °F76 %30.01 in4.0 miWest (280°)25.3 mph29.9 mph0.00 inSnowLight Snow
5:45 PM8.6 °F1.4 °F73 %30.00 in7.0 miWest (280°)27.6 mph33.4 mph0.00 inOvercast
5:52 PM9.0 °F1.9 °F73 %30.06 in8.0 miWest (280°)26.5 mph33.4 mph0.00 inOvercast
6:28 PM8.6 °F1.4 °F73 %30.03 in9.0 miWest (270°)25.3 mph33.4 mphOvercast
6:36 PM8.6 °F1.4 °F73 %30.04 in6.0 miWest (280°)20.7 mph33.4 mphHaze
6:52 PM8.1 °F1.0 °F73 %30.09 in10.0 miWest (280°)25.3 mph31.1 mphMostly Cloudy
7:27 PM6.8 °F-0.4 °F72 %30.07 in10.0 miWNW (290°)17.3 mph28.8 mphScattered Clouds
7:52 PM7.0 °F0.0 °F73 %30.12 in10.0 miWNW (290°)24.2 mph28.8 mphMostly Cloudy
8:08 PM6.8 °F-0.4 °F72 %30.08 in10.0 miWest (280°)23.0 mph29.9 mphMostly Cloudy
8:52 PM6.1 °F0.0 °F76 %30.15 in9.0 miWNW (290°)24.2 mph29.9 mphOvercast
9:38 PM5.0 °F-2.2 °F72 %30.13 in10.0 miWNW (300°)24.2 mph32.2 mphOvercast
9:52 PM5.0 °F-2.0 °F73 %30.18 in10.0 miWNW (290°)23.0 mph29.9 mphMostly Cloudy
10:52 PM3.9 °F-2.9 °F73 %30.20 in10.0 miWNW (290°)23.0 mph32.2 mphPartly Cloudy
11:52 PM3.0 °F-2.9 °F76 %30.22 in10.0 miWNW (290°)23.0 mphClear
Hourly data recorded from KARR, located miles away from Aurora, Illinois







STORIES FROM OUR PARTNERS